GAOFEN-4

Last updated on Thu Aug 13 2026 00:02:46 GMT+0000 (Coordinated Universal Time)

1 41194U 15083A 26223.62193737 -.00000351 00000+0 00000+0 0 9997 2 41194 0.4946 83.6519 0004406 130.8445 75.1368 1.00267402 39087
UTC large
Height (km)
Speed (km/s)
/
Latitude / Longitude
Inclination (degrees)
Orbital Period (minutes)
Azimuth
Elevation
Range (km)
Doppler Factor

Next 0 passes for location: London (51.5072 / 0.1276)

No passes found over London.
GAOFEN-4